This is the latest recevied weather packets stored in our database for station/object SP2WPY-13. If no packets are shown the sender has not sent any weather packets the latest 10 day(s).
| Time | Temp. | Humidity | Pressure | Rain* | Wind** | Luminosity | Snow |
|---|---|---|---|---|---|---|---|
| 1777629106 | 23.33° C | 31% | 1028.7 hPa | - | - | - | - |
| 1777628787 | 22.78° C | 32% | 1028.8 hPa | - | - | - | - |
| 1777628467 | 21.67° C | 34% | 1028.8 hPa | - | - | - | - |
| 1777628192 | 21.11° C | 36% | 1028.9 hPa | - | - | - | - |
| 1777627873 | 20.56° C | 35% | 1028.9 hPa | - | - | - | - |
| 1777627598 | 21.11° C | 34% | 1028.9 hPa | - | - | - | - |
| 1777627279 | 21.67° C | 35% | 1029 hPa | - | - | - | - |
| 1777627005 | 21.11° C | 35% | 1029 hPa | - | - | - | - |
| 1777626685 | 21.67° C | 34% | 1029.2 hPa | - | - | - | - |
| 1777626366 | 21.67° C | 34% | 1029.2 hPa | - | - | - | - |
| 1777626091 | 21.67° C | 35% | 1029.2 hPa | - | - | - | - |
| 1777625772 | 21.11° C | 36% | 1029.2 hPa | - | - | - | - |
| 1777625498 | 22.22° C | 33% | 1029.3 hPa | - | - | - | - |
| 1777625178 | 22.22° C | 33% | 1029.3 hPa | - | - | - | - |
| 1777624904 | 22.22° C | 33% | 1029.4 hPa | - | - | - | - |
| 1777624585 | 21.67° C | 35% | 1029.3 hPa | - | - | - | - |
| 1777624265 | 21.11° C | 36% | 1029.4 hPa | - | - | - | - |
| 1777623991 | 21.11° C | 36% | 1029.4 hPa | - | - | - | - |
| 1777623671 | 21.11° C | 36% | 1029.4 hPa | - | - | - | - |
| 1777623396 | 20.56° C | 37% | 1029.5 hPa | - | - | - | - |
| 1777623077 | 20.56° C | 38% | 1029.5 hPa | - | - | - | - |
| 1777622803 | 20° C | 39% | 1029.5 hPa | - | - | - | - |
| 1777622483 | 20° C | 39% | 1029.6 hPa | - | - | - | - |
| 1777622164 | 20° C | 38% | 1029.5 hPa | - | - | - | - |
| 1777621891 | 20° C | 39% | 1029.5 hPa | - | - | - | - |
* Rain since midnight (hover to see other rain measurements)
** Current wind speed in m/s (hover to see current wind gust speed)